Home   Weather   Bellinzona   Past weeks

Flag for Switzerland Past Weather in Bellinzona, Ticino, Switzerland — Yesterday and Last 2 Weeks

Now
73 °F

Mild.


Feels Like: 73 °F
Forecast: 60 / 76 °F
Wind: 20 mph from West

Location: Locarno-Magadino

Current Time: Aug 18, 2017 at 9:56:37 pm

Latest Report: Aug 18, 2017 at 8:00 pm


Visibility: N/A

Pressure: 29.94 "Hg

Humidity: 81%

Dew Point: 67 °F

Location of BellinzonaLocation

Past Weather in Bellinzona — Graph

°F

Bellinzona Temperature Yesterday

Maximum temperature yesterday: 85 °F (at 5:00 pm)
Minimum temperature yesterday: 64 °F (at 4:00 am)
Average temperature yesterday: 73 °F

High & Low Weather Summary for the Past Weeks

 TemperatureHumidityPressure
High92 °F (Aug 5, 5:00 pm)99% (Aug 14, 5:00 am)30.21 "Hg (Aug 14, 5:00 am)
Low50 °F (Aug 12, 7:00 am)28% (Aug 12, 4:00 pm)29.80 "Hg (Aug 5, 6:00 pm)
Average70 °F75%30.00 "Hg
* Reported Aug 3 8:00 pm — Aug 18 8:00 pm, Bellinzona. Weather by CustomWeather, © 2017

Note: Actual official high and low records may vary slightly from our data, if they occured in-between our weather recording intervals... More about our weather records

Advertising

Bellinzona Weather History for the Previous 24 Hours

Scroll right to see more
 ConditionsComfort  
Time TempWeatherWind HumidityBarometerVisibility
8:00 pm
Fri, Aug 18
73 °FMild.20 mph81%29.94 "HgN/A
7:00 pm79 °FWarm.2 mph74%29.91 "HgN/A
6:00 pm82 °FWarm.5 mph64%29.93 "HgN/A
5:00 pm83 °FWarm.3 mph60%29.94 "HgN/A
4:00 pm84 °FWarm.6 mph55%29.97 "HgN/A
3:00 pm85 °FWarm.7 mph52%29.99 "HgN/A
2:00 pm83 °FWarm.2 mph60%30.01 "HgN/A
1:00 pm82 °FWarm.3 mph65%30.03 "HgN/A
12:00 pm77 °FWarm.2 mph63%30.05 "HgN/A
11:00 am77 °FMild.1 mph63%30.07 "HgN/A
10:00 am74 °FMild.No wind74%30.08 "HgN/A
9:00 am71 °FMild.1 mph83%30.09 "HgN/A
8:00 am69 °FMild.2 mph91%30.09 "HgN/A
7:00 am65 °FMild.1 mph96%30.09 "HgN/A
6:00 am64 °FMild.1 mph97%30.09 "HgN/A
5:00 am64 °FMild.No wind96%30.08 "HgN/A
4:00 am64 °FMild.No wind97%30.09 "HgN/A
3:00 am65 °FMild.No wind97%30.09 "HgN/A
2:00 am66 °FMild.1 mph96%30.09 "HgN/A
1:00 am67 °FMild.1 mph95%30.09 "HgN/A
12:00 am66 °FMild.2 mph96%30.08 "HgN/A
11:00 pm
Thu, Aug 17
68 °FMild.1 mph93%30.07 "HgN/A
10:00 pm69 °FMild.1 mph95%30.06 "HgN/A
9:00 pm74 °FMild.1 mph76%30.04 "HgN/A
Weather by CustomWeather, © 2017

See weather overviewHow to use our weather pages